[[{"header":{"parameterUnit":"m.s-1","parameterCategory":1,"la1":30.2991,"la2":30.254,"lo1":-89.0895,"lo2":-89.0444,"dy":0.0017,"dx":0.0017,"nx":28,"ny":28,"refTime":"2024-07-20T03:00:00:Z","depth":0,"parameterNumber":2,"parameterNumberName":"U-component_of_WINDS"},"data":[0,0,0,0,0,0,0,0,0,0,0,0,0,0,0,0,0,0,0,0,0,0,0,0,0,0,0,0,0,0,0,0,0,0,0,0,0,0,0,0,0,0,0,0,0,0,0,0,0,0,0,0,0,0,0,0,0,0,-1.9566,-1.9566,0,-1.9514,-1.9513,-1.9513,-1.9515,-1.9516,-1.9517,-1.9518,-1.9458,-1.9456,-1.9454,0,0,0,0,0,0,0,0,0,0,0,0,0,-1.9663,-1.9661,-1.9566,-1.9566,-1.9565,-1.9514,-1.9513,-1.9512,-1.9515,-1.9516,-1.9517,-1.9518,-1.9459,-1.9456,-1.9453,0,0,0,0,0,0,0,0,0,0,0,0,0,-1.9617,-1.9661,-1.9567,-1.956,-1.9559,-1.9514,-1.9513,-1.9512,-1.9515,-1.9516,-1.9517,-1.9518,-1.946,-1.9456,-1.9453,-1.9409,0,0,-1.9442,-1.9441,0,0,0,0,0,0,0,0,-1.9619,-1.9613,-1.9562,-1.9561,-1.956,-1.9523,-1.9526,-1.9477,-1.9515,-1.9532,-1.9518,-1.9519,-1.9478,-1.9473,-1.9461,-1.9406,-1.9403,-1.9442,-1.944,-1.9439,-1.9438,0,0,0,0,0,0,0,-1.9623,-1.9615,-1.9545,-1.9561,-1.956,-1.9558,-1.9553,-1.9516,-1.9499,-1.953,-1.953,-1.9524,-1.9478,-1.9464,-1.9459,-1.9402,-1.9442,-1.9439,-1.9437,-1.9436,-1.9306,-1.9305,0,0,0,0,0,0,-1.9628,-1.9618,-1.9547,-1.9544,-1.9593,-1.9556,-1.955,-1.9533,-1.9499,-1.9495,-1.9524,-1.9525,-1.9469,-1.9463,-1.9457,-1.9401,-1.9439,-1.9435,-1.9433,-1.9307,-1.9306,-1.9304,0,0,0,0,0,0,-1.963,-1.9622,-1.9549,-1.9581,-1.9572,-1.9553,-1.9534,-1.9531,-1.9518,-1.9494,-1.9491,-1.9513,-1.947,-1.9462,-1.9421,-1.9399,-1.9434,-1.9431,-1.9309,-1.9307,-1.9305,-1.929,0,0,0,0,0,0,-1.9633,-1.9622,-1.9607,-1.9581,-1.957,-1.9515,-1.9533,-1.953,-1.9513,-1.9514,-1.9484,-1.948,-1.947,-1.9426,-1.9417,-1.9395,-1.9428,-1.9311,-1.9308,-1.9305,-1.9292,-1.9287,-1.9283,0,0,0,0,0,-1.9636,-1.9604,-1.9606,-1.9597,-1.955,-1.9514,-1.9508,-1.9499,-1.9511,-1.9494,-1.9479,-1.9481,-1.9404,-1.9421,-1.9412,-1.9388,-1.9312,-1.9309,-1.9306,-1.9294,-1.9288,-1.9284,0,0,0,0,0,0,-1.9626,-1.96,-1.9602,-1.9561,-1.954,-1.9515,-1.9493,-1.9494,-1.9467,-1.9469,-1.9459,-1.9452,-1.9409,-1.9395,-1.9415,-1.9342,-1.9359,-1.9354,-1.9353,-1.9348,-1.9343,-1.9346,-1.9425,0,0,0,0,0,-1.9619,-1.9594,-1.9572,-1.9537,-1.9527,-1.9512,-1.9495,-1.9491,-1.9468,-1.9458,-1.944,-1.9416,-1.9386,-1.9366,-1.9338,-1.9291,-1.9282,-1.927,-1.9265,-1.9262,-1.9257,-1.9228,-1.9221,-1.9294,-1.9294,-1.9294,0,0,-1.9604,-1.9587,-1.9571,-1.9535,-1.9518,-1.9489,-1.9504,-1.9474,-1.9452,-1.9453,-1.9413,-1.9398,-1.9371,-1.9326,-1.9305,-1.9312,-1.9235,-1.9258,-1.9256,-1.9252,-1.9224,-1.9218,-1.9211,-1.9292,-1.9292,-1.9293,0,0,-1.9562,-1.9547,-1.9516,-1.9499,-1.9474,-1.9464,-1.9457,-1.9431,-1.9422,-1.9382,-1.9382,-1.9355,-1.9305,-1.9284,-1.9267,-1.9217,-1.9216,-1.9208,-1.9184,-1.9157,-1.9151,-1.9146,-1.9125,-1.9118,-1.9203,-1.9203,-1.9203,0,-1.9545,-1.9505,-1.9499,-1.9469,-1.9451,-1.9454,-1.942,-1.9404,-1.9369,-1.9356,-1.9366,-1.9302,-1.9284,-1.9233,-1.922,-1.9208,-1.9196,-1.921,-1.9153,-1.9147,-1.9142,-1.9123,-1.9115,-1.9202,-1.9202,-1.9202,-1.9202,0,-1.9485,-1.9456,-1.9433,-1.9402,-1.9383,-1.9351,-1.9339,-1.9319,-1.9317,-1.9305,-1.9263,-1.9241,-1.9207,-1.9195,-1.9192,-1.9143,-1.9148,-1.9156,-1.9171,-1.9135,-1.9115,-1.9108,-1.9201,-1.9201,-1.9201,-1.9202,0,0,-1.9433,-1.9399,-1.9391,-1.9376,-1.9348,-1.9325,-1.9292,-1.9261,-1.9243,-1.922,-1.919,-1.9148,-1.9154,-1.9135,-1.9129,-1.9105,-1.9064,-1.9115,-1.9114,-1.9104,-1.9005,-1.8998,-1.899,-1.9065,-1.9063,-1.9062,-1.9007,0,-1.9385,-1.9329,-1.9324,-1.9272,-1.9244,-1.9246,-1.9217,-1.9196,-1.9185,-1.9158,-1.9144,-1.9113,-1.9125,-1.9113,-1.909,-1.9074,-1.9043,-1.9078,-1.9034,-1.9032,-1.9038,-1.898,-1.8972,-1.8921,-1.9,-1.8998,-1.8998,0,-1.9323,-1.9299,-1.9245,-1.922,-1.9208,-1.9183,-1.9152,-1.9128,-1.9103,-1.9096,-1.9075,-1.9072,-1.9036,-1.9055,-1.9004,-1.9027,-1.9009,-1.8998,-1.8996,-1.8989,-1.9011,-1.8969,-1.8905,-1.8896,-1.8986,-1.8987,-1.8988,0,-1.9287,-1.9241,-1.9203,-1.919,-1.9161,-1.9142,-1.9129,-1.9106,-1.9087,-1.906,-1.9047,-1.9016,-1.8998,-1.8973,-1.8961,-1.8977,-1.891,-1.8929,-1.89,-1.89,-1.8883,-1.8884,-1.8813,-1.8877,-1.8877,-1.8877,-1.8877,0,-1.9233,-1.9199,-1.9186,-1.9162,-1.9124,-1.9117,-1.9079,-1.9066,-1.9045,-1.9016,-1.9016,-1.8989,-1.8977,-1.8947,-1.8938,-1.8895,-1.8888,-1.8879,-1.8876,-1.8877,-1.8878,-1.8863,-1.8865,-1.8875,-1.8875,-1.8876,-1.8876,0,-1.9185,-1.9176,-1.9133,-1.911,-1.9103,-1.9075,-1.9054,-1.9029,-1.9019,-1.8983,-1.8974,-1.8956,-1.8921,-1.8908,-1.8865,-1.8858,-1.8808,-1.8809,-1.8816,-1.8815,-1.8786,-1.8788,-1.87,-1.8687,-1.8763,-1.8762,-1.8761,0,-1.9151,-1.9125,-1.9099,-1.908,-1.9067,-1.9038,-1.9019,-1.9011,-1.899,-1.896,-1.8938,-1.8904,-1.8876,-1.882,-1.8802,-1.8768,-1.8767,-1.8739,-1.8762,-1.8763,-1.8763,-1.8763,-1.8759,-1.8733,-1.8733,-1.8732,-1.8732,0,-1.9089,-1.9085,-1.9058,-1.903,-1.9007,-1.8984,-1.8961,-1.8946,-1.8934,-1.891,-1.8876,-1.8854,-1.8811,-1.8776,-1.8742,-1.8725,-1.8725,-1.8725,-1.8716,-1.8715,-1.8719,-1.8714,-1.8802,-1.8726,-1.8727,-1.8727,-1.8727,-1.8728,-1.9044,-1.9021,-1.8998,-1.8968,-1.895,-1.8929,-1.8904,-1.8891,-1.8862,-1.8827,-1.8824,-1.8786,-1.876,-1.8714,-1.8697,-1.8665,-1.8672,-1.866,-1.8656,-1.8653,-1.8649,-1.8727,-1.8659,-1.8659,-1.866,-1.866,-1.866,0,-1.898,-1.8966,-1.8938,-1.8907,-1.8882,-1.8887,-1.8862,-1.884,-1.8807,-1.8784,-1.8757,-1.8716,-1.8682,-1.8661,-1.8626,-1.8605,-1.8604,-1.8596,-1.8595,-1.8591,-1.8646,-1.8656,-1.8597,-1.8597,-1.8597,-1.8597,-1.8597,-1.8597,-1.8943,-1.8903,-1.8896,-1.8846,-1.8832,-1.8796,-1.8781,-1.876,-1.8741,-1.8696,-1.8668,-1.8656,-1.8633,-1.8596,-1.8564,-1.8559,-1.8544,-1.8535,-1.853,-1.8581,-1.8588,-1.8594,-1.8603,-1.8533,-1.8533,-1.8477,-1.8476,-1.8476]},{"header":{"parameterUnit":"m.s-1","parameterCategory":1,"la1":30.2991,"la2":30.254,"lo1":-89.0895,"lo2":-89.0444,"dy":0.0017,"dx":0.0017,"nx":28,"ny":28,"refTime":"2024-07-20T03:00:00:Z","depth":0,"parameterNumber":3,"parameterNumberName":"V-component_of_WINDS"},"data":[0,0,0,0,0,0,0,0,0,0,0,0,0,0,0,0,0,0,0,0,0,0,0,0,0,0,0,0,0,0,0,0,0,0,0,0,0,0,0,0,0,0,0,0,0,0,0,0,0,0,0,0,0,0,0,0,0,0,2.808,2.808,0,2.8133,2.8134,2.8135,2.81,2.8099,2.8097,2.8096,2.8151,2.8154,2.8157,0,0,0,0,0,0,0,0,0,0,0,0,0,2.7948,2.7951,2.8079,2.808,2.8081,2.8133,2.8134,2.8135,2.8101,2.8099,2.8097,2.8095,2.815,2.8153,2.8157,0,0,0,0,0,0,0,0,0,0,0,0,0,2.8004,2.7952,2.8079,2.807,2.807,2.8133,2.8134,2.8135,2.8101,2.8099,2.8096,2.8094,2.8149,2.8153,2.8157,2.8233,0,0,2.8171,2.8173,0,0,0,0,0,0,0,0,2.8001,2.8009,2.8071,2.8071,2.8071,2.8108,2.8108,2.8168,2.8102,2.8089,2.8096,2.8093,2.8138,2.8143,2.8159,2.8235,2.8238,2.8171,2.8174,2.8176,2.8177,0,0,0,0,0,0,0,2.7997,2.8006,2.8101,2.8072,2.8072,2.8064,2.8069,2.8119,2.8127,2.809,2.8088,2.8095,2.8138,2.8155,2.816,2.8239,2.8171,2.8175,2.8178,2.818,2.8382,2.8385,0,0,0,0,0,0,2.7994,2.8003,2.8099,2.8102,2.8029,2.8068,2.8074,2.8098,2.8126,2.8128,2.8097,2.8093,2.8148,2.8155,2.8162,2.8253,2.8176,2.818,2.8183,2.8379,2.8383,2.8386,0,0,0,0,0,0,2.7991,2.8003,2.8097,2.8052,2.8064,2.8073,2.81,2.8101,2.8117,2.8131,2.8132,2.8112,2.8147,2.8155,2.8216,2.8255,2.8182,2.8186,2.8376,2.838,2.8384,2.8437,0,0,0,0,0,0,2.7987,2.8002,2.803,2.8053,2.8066,2.815,2.8103,2.8103,2.8125,2.8121,2.8146,2.8148,2.8145,2.8209,2.822,2.826,2.8189,2.8373,2.8378,2.8383,2.8432,2.8442,2.8451,0,0,0,0,0,2.7983,2.8042,2.8032,2.8044,2.8102,2.8152,2.816,2.8156,2.8128,2.8157,2.8166,2.8147,2.8249,2.8216,2.8228,2.8269,2.837,2.8377,2.8383,2.8427,2.844,2.8451,0,0,0,0,0,0,2.8023,2.8045,2.8034,2.8102,2.8126,2.8146,2.8182,2.8169,2.8201,2.8195,2.8189,2.8195,2.8259,2.827,2.8233,2.8345,2.8305,2.8314,2.8335,2.8348,2.8357,2.8353,2.8193,0,0,0,0,0,2.804,2.8079,2.8096,2.8155,2.8167,2.8173,2.8195,2.819,2.8214,2.8224,2.8237,2.8261,2.8299,2.8324,2.8359,2.8433,2.8439,2.8467,2.8477,2.8485,2.8493,2.8535,2.8549,2.8406,2.8406,2.8406,0,0,2.8075,2.8092,2.8117,2.8163,2.8181,2.8222,2.8182,2.8226,2.8257,2.823,2.8289,2.83,2.8326,2.8395,2.8425,2.8406,2.8534,2.8493,2.8499,2.8503,2.8543,2.8556,2.8568,2.841,2.8409,2.8409,0,0,2.816,2.8176,2.8228,2.8247,2.8275,2.8278,2.8291,2.8314,2.8321,2.8379,2.8361,2.8398,2.8462,2.8482,2.8501,2.8597,2.8581,2.8609,2.866,2.8701,2.8712,2.8722,2.8758,2.8771,2.8616,2.8616,2.8616,0,2.82,2.8261,2.8256,2.8303,2.8325,2.8304,2.8357,2.8375,2.8413,2.8429,2.8407,2.8489,2.8505,2.8579,2.8602,2.8618,2.8633,2.8606,2.8711,2.8721,2.873,2.8764,2.8777,2.862,2.8619,2.8619,2.8619,0,2.831,2.8353,2.8392,2.8429,2.8456,2.8505,2.8509,2.8536,2.8529,2.8536,2.8597,2.8616,2.8656,2.8673,2.8666,2.8746,2.8734,2.8711,2.8672,2.8747,2.8779,2.8792,2.8624,2.8623,2.8622,2.8621,0,0,2.8421,2.8457,2.8471,2.8489,2.8519,2.8552,2.8602,2.8641,2.8665,2.8692,2.8735,2.8791,2.8771,2.8793,2.8789,2.8825,2.8901,2.8798,2.8799,2.8818,2.8993,2.901,2.9025,2.8891,2.8893,2.8895,2.8991,0,2.8509,2.8595,2.8593,2.8674,2.8715,2.8696,2.8739,2.8763,2.8771,2.8807,2.8815,2.8856,2.8826,2.8839,2.8874,2.8885,2.8937,2.8878,2.8931,2.8933,2.8926,2.9042,2.906,2.9149,2.9004,2.9006,2.9007,0,2.8623,2.8655,2.874,2.8766,2.8783,2.8822,2.8859,2.8893,2.892,2.8924,2.8949,2.894,2.8991,2.895,2.9022,2.8982,2.9004,2.9013,2.9016,2.9021,2.8975,2.9052,2.9178,2.9192,2.9026,2.9025,2.9024,0,2.8697,2.8762,2.8821,2.8837,2.8868,2.8896,2.8911,2.8935,2.896,2.8992,2.9009,2.9047,2.9068,2.9098,2.91,2.9069,2.9173,2.9131,2.9178,2.9178,2.9201,2.92,2.9334,2.9214,2.9213,2.9213,2.9213,0,2.8796,2.8849,2.8855,2.8892,2.8952,2.8949,2.9008,2.902,2.9043,2.9082,2.9068,2.9106,2.9105,2.9144,2.9146,2.9206,2.9215,2.922,2.922,2.9222,2.9222,2.9237,2.9231,2.9217,2.9216,2.9215,2.9215,0,2.8889,2.8895,2.8959,2.8984,2.8992,2.9035,2.9057,2.9092,2.9099,2.915,2.9162,2.9173,2.9218,2.9223,2.9275,2.9276,2.935,2.9342,2.9341,2.934,2.9387,2.9383,2.9536,2.9557,2.9422,2.9424,2.9425,0,2.8952,2.8993,2.9023,2.9049,2.9065,2.9106,2.9131,2.9131,2.9158,2.9194,2.9226,2.9269,2.9304,2.9377,2.939,2.9431,2.9425,2.9476,2.9431,2.9433,2.9428,2.9426,2.9431,2.9485,2.9486,2.9488,2.9489,0,2.9064,2.9066,2.9103,2.9142,2.9173,2.9204,2.9232,2.9254,2.9258,2.9289,2.9335,2.9363,2.9417,2.9461,2.9501,2.9517,2.9504,2.9503,2.9516,2.9519,2.9517,2.952,2.9366,2.9499,2.9498,2.9497,2.9497,2.9496,2.9145,2.9181,2.9209,2.9251,2.9273,2.9301,2.9336,2.9349,2.9387,2.9431,2.9429,2.948,2.9508,2.9561,2.958,2.9621,2.9604,2.9622,2.9628,2.9633,2.9638,2.951,2.9628,2.9627,2.9627,2.9627,2.9627,0,2.9258,2.9275,2.9314,2.9356,2.939,2.9375,2.9406,2.9436,2.9482,2.9509,2.9544,2.9598,2.9642,2.9659,2.9702,2.9731,2.9727,2.9743,2.9741,2.9745,2.965,2.9635,2.9746,2.9746,2.9746,2.9746,2.9746,2.9746,2.9321,2.9382,2.9387,2.9459,2.9476,2.9526,2.9546,2.9572,2.9594,2.9655,2.9692,2.9703,2.9727,2.9772,2.9811,2.9815,2.9833,2.9851,2.9853,2.9764,2.9752,2.974,2.9726,2.9855,2.9855,2.9946,2.9946,2.9947]}]]